1512554400.5,62880,2.81,73314.0,-7.11,-7.69,-7.65,0,*5F
1512554401.77,62881,2.81,73320.0,-7.13,-7.65,-7.57,0,*51
1512554403.04,62882,2.81,73354.3,-7.13,-7.65,-7.65,0,*53
1512554404.29,62883,2.81,73324.5,-7.11,-7.65,-7.65,0,*50
1512554405.53,62884,2.81,73318.3,-7.11,-7.69,-7.65,0,*5B
1512554406.77,62885,2.81,73332.5,-7.11,-7.69,-7.65,0,*5A
1512554408.02,62886,2.81,73344.0,-7.11,-7.65,-7.65,0,*55
1512554409.27,62887,2.81,73358.0,-7.11,-7.65,-7.65,0,*54
1512554410.51,62888,2.81,73370.5,-7.11,-7.69,-7.65,0,*57
1512554411.75,62889,2.81,73358.8,-7.11,-7.69,-7.65,0,*56
1512554413.0,62890,2.81,73338.8,-7.11,-7.77,-7.69,0,*5D
1512554414.22,62891,2.81,73356.0,-7.11,-7.83,-7.77,0,*58
1512554415.46,62892,2.81,73358.5,-7.11,-7.77,-7.77,0,*50
1512554416.68,62893,2.81,73356.8,-7.11,-7.83,-7.77,0,*5A
1512554417.95,62894,2.81,73342.5,-7.09,-7.77,-7.73,0,*5B
1512554419.23,62895,2.81,73330.8,-7.09,-7.73,-7.73,0,*5E
1512554420.5,62896,2.81,73352.5,-7.09,-7.77,-7.77,0,*5D
1512554421.77,62897,2.81,73352.8,-7.09,-7.77,-7.73,0,*58
1512554423.05,62898,2.75,73402.5,-7.09,-7.73,-7.77,0,*57
1512554424.32,62899,2.81,73398.0,-7.09,-7.77,-7.77,0,*52
1512554425.52,62900,2.81,73360.0,-7.11,-7.83,-7.83,0,*5A
1512554426.74,62901,2.81,73364.3,-7.11,-7.83,-7.77,0,*50
1512554428.02,62902,2.81,73398.0,-7.09,-7.73,-7.77,0,*55
1512554429.29,62903,2.75,73386.8,-7.09,-7.73,-7.73,0,*50
1512554430.54,62904,2.81,73368.5,-7.09,-7.87,-7.77,0,*58
1512554431.79,62905,2.81,73352.5,-7.09,-7.77,-7.87,0,*59
1512554433.01,62906,2.81,73398.3,-7.07,-7.87,-7.77,0,*54
1512554434.28,62907,2.81,73404.5,-7.09,-7.77,-7.77,0,*54
1512554435.55,62908,2.81,73424.5,-7.09,-7.77,-7.77,0,*5B
1512554436.8,62909,2.81,73434.8,-7.09,-7.77,-7.87,0,*55
1512554438.07,62910,2.81,73422.5,-7.09,-7.77,-7.77,0,*52
1512554439.29,62911,2.81,73412.3,-7.09,-7.87,-7.87,0,*53
1512554440.54,62912,2.81,73390.0,-7.09,-7.77,-7.87,0,*5F
1512554441.78,62913,2.81,73388.3,-7.09,-7.87,-7.91,0,*56
1512554443.03,62914,2.81,73384.0,-7.09,-7.87,-7.77,0,*59
1512554444.28,62915,2.81,73398.0,-7.09,-7.91,-7.87,0,*50
1512554445.52,62916,2.81,73366.3,-7.09,-7.87,-7.77,0,*5B
1512554446.74,62917,2.81,73362.3,-7.09,-7.87,-7.87,0,*55
1512554448.01,62918,2.81,73340.3,-7.09,-7.91,-7.91,0,*5A
1512554449.28,62919,2.81,73344.0,-7.09,-7.91,-7.91,0,*5B
1512554450.54,62920,2.81,73362.8,-7.09,-7.91,-7.91,0,*51
1512554451.81,62921,2.81,73384.8,-7.09,-7.91,-7.91,0,*50
1512554453.08,62922,2.81,73414.0,-7.09,-7.91,-7.91,0,*53
1512554454.34,62923,2.81,73434.8,-7.09,-7.95,-7.91,0,*56
1512554455.61,62924,2.75,73374.5,-7.09,-7.95,-7.91,0,*51
1512554456.88,62925,2.81,73356.8,-7.09,-7.95,-8.03,0,*54
1512554458.14,62926,2.81,73370.5,-7.09,-8.03,-7.95,0,*57
1512554459.41,62927,2.81,73374.3,-7.09,-7.95,-8.03,0,*56
1512554460.65,62928,2.81,73368.0,-7.07,-8.03,-8.03,0,*57
1512554461.91,62929,2.81,73366.5,-7.09,-8.03,-8.03,0,*58
1512554463.18,62930,2.75,73366.0,-7.09,-8.07,-7.95,0,*54
1512554464.46,62931,2.81,73356.0,-7.09,-8.07,-8.07,0,*51
1512554465.71,62932,2.75,73338.8,-7.09,-8.17,-8.07,0,*53
1512554466.9,62933,2.81,73338.8,-7.11,-8.21,-8.21,0,*5A
1512554468.1,62934,2.81,73328.3,-7.11,-8.25,-8.21,0,*59
1512554469.28,62935,2.81,73334.0,-7.11,-8.33,-8.33,0,*5C
1512554470.47,62936,2.81,73352.5,-7.11,-8.33,-8.25,0,*58
1512554471.65,62937,2.81,73360.3,-7.11,-8.33,-8.33,0,*5E
1512554472.85,62938,2.81,73358.3,-7.13,-8.33,-8.33,0,*53
1512554474.07,62939,2.81,73356.5,-7.13,-8.33,-8.37,0,*56
1512554475.27,62940,2.81,73368.3,-7.13,-8.33,-8.33,0,*5C
1512554476.48,62941,2.81,73386.0,-7.13,-8.33,-8.33,0,*5D
1512554477.67,62942,2.81,73364.3,-7.11,-8.25,-8.33,0,*5B
1512554478.88,62943,2.81,73360.8,-7.13,-8.37,-8.33,0,*5B
1512554480.09,62944,2.81,73358.0,-7.13,-8.33,-8.45,0,*59
1512554481.32,62945,2.81,73316.3,-7.13,-8.37,-8.37,0,*59
1512554482.51,62946,2.81,73338.8,-7.15,-8.41,-8.41,0,*5C
1512554483.74,62947,2.81,73338.5,-7.15,-8.41,-8.51,0,*5C
1512554484.98,62948,2.81,73340.0,-7.17,-8.51,-8.41,0,*51
1512554486.18,62949,2.81,73336.0,-7.15,-8.41,-8.41,0,*53
1512554487.4,62950,2.81,73294.8,-7.15,-8.51,-8.41,0,*5A
1512554488.6,62951,2.81,73282.3,-7.15,-8.41,-8.41,0,*5A
1512554489.83,62952,2.81,73304.0,-7.17,-8.41,-8.37,0,*5A
1512554491.02,62953,2.81,73316.5,-7.15,-8.29,-8.29,0,*58
1512554492.24,62954,2.81,73334.3,-7.17,-8.37,-8.29,0,*52
1512554493.47,62955,2.81,73344.3,-7.17,-8.37,-8.37,0,*5C
1512554494.69,62956,2.81,73348.5,-7.17,-8.29,-8.29,0,*5F
1512554495.88,62957,2.81,73352.5,-7.15,-8.25,-8.29,0,*50
1512554497.08,62958,2.81,73364.0,-7.15,-8.29,-8.37,0,*5C
1512554498.28,62959,2.81,73372.8,-7.15,-8.29,-8.25,0,*5E
1512554499.5,62960,2.81,73370.5,-7.17,-8.25,-8.25,0,*5A
1512554500.72,62961,2.81,73368.8,-7.17,-8.25,-8.17,0,*5A
1512554501.91,62962,2.81,73370.3,-7.15,-8.17,-8.25,0,*5B
1512554503.14,62963,2.81,73372.0,-7.17,-8.25,-8.17,0,*58
1512554504.36,62964,2.81,73378.0,-7.17,-8.17,-8.25,0,*5F
1512554505.58,62965,2.81,73372.3,-7.17,-8.17,-8.17,0,*5F
1512554506.8,62966,2.81,73366.5,-7.17,-8.25,-8.17,0,*5D
1512554508.02,62967,2.81,73372.0,-7.17,-8.17,-8.17,0,*5D
1512554509.25,62968,2.81,73372.5,-7.17,-8.17,-8.17,0,*52
1512554510.47,62969,2.81,73366.8,-7.21,-8.21,-8.21,0,*56
1512554511.68,62970,2.81,73364.5,-7.21,-8.21,-8.17,0,*5B
1512554512.9,62971,2.81,73362.8,-7.17,-8.17,-8.17,0,*5A
1512554514.13,62972,2.81,73366.0,-7.17,-8.17,-8.17,0,*59
1512554515.34,62973,2.81,73368.0,-7.21,-8.21,-8.17,0,*58
1512554516.57,62974,2.81,73366.8,-7.17,-8.25,-8.25,0,*5F
1512554517.79,62975,2.81,73366.5,-7.17,-8.25,-8.25,0,*5E
1512554519.01,62976,2.81,73374.8,-7.17,-8.25,-8.17,0,*5C
1512554520.23,62977,2.81,73386.3,-7.17,-8.25,-8.25,0,*5C
1512554521.45,62978,2.81,73392.0,-7.21,-8.29,-8.21,0,*5E
1512554522.7,62979,2.81,73390.5,-7.17,-8.11,-8.17,0,*54
1512554523.92,62980,2.81,73392.8,-7.17,-8.17,-8.25,0,*55
1512554525.14,62981,2.81,73396.5,-7.17,-8.25,-8.17,0,*54
1512554526.36,62982,2.81,73402.5,-7.17,-8.17,-8.17,0,*56
1512554527.59,62983,2.81,73382.0,-7.17,-8.25,-8.25,0,*57
1512554528.81,62984,2.81,73366.3,-7.17,-8.25,-8.17,0,*51
1512554530.03,62985,2.81,73356.8,-7.17,-8.17,-8.17,0,*51
1512554531.25,62986,2.81,73372.8,-7.17,-8.17,-8.17,0,*52
1512554532.47,62987,2.81,73372.8,-7.21,-8.29,-8.21,0,*5E
1512554533.69,62988,2.81,73368.3,-7.21,-8.21,-8.29,0,*51
1512554534.88,62989,2.81,73366.5,-7.23,-8.29,-8.29,0,*5A
1512554536.1,62990,2.81,73358.3,-7.21,-8.29,-8.21,0,*58
1512554537.31,62991,2.81,73364.0,-7.21,-8.21,-8.29,0,*59
1512554538.53,62992,2.81,73366.8,-7.21,-8.21,-8.21,0,*52
1512554539.73,62993,2.81,73364.0,-7.23,-8.21,-8.29,0,*59
1512554540.95,62994,2.81,73356.8,-7.21,-8.29,-8.21,0,*5C
1512554542.14,62995,2.81,73362.5,-7.23,-8.29,-8.21,0,*5F
1512554543.36,62996,2.81,73370.5,-7.21,-8.21,-8.21,0,*56
1512554544.61,62997,2.81,73372.8,-7.21,-8.21,-8.07,0,*53
1512554545.83,62998,2.81,73382.0,-7.21,-8.21,-8.21,0,*58
1512554547.05,62999,2.81,73358.3,-7.21,-8.17,-8.21,0,*5C
1512554548.25,63000,2.81,73348.0,-7.23,-8.17,-8.21,0,*56
1512554549.47,63001,2.81,73344.3,-7.21,-8.21,-8.21,0,*50
1512554550.66,63002,2.81,73354.3,-7.23,-8.21,-8.21,0,*51
1512554551.89,63003,2.81,73356.5,-7.21,-8.21,-8.21,0,*52
1512554553.1,63004,2.81,73356.5,-7.21,-8.21,-8.21,0,*55
1512554554.32,63005,2.81,73360.3,-7.21,-8.17,-8.17,0,*54
1512554555.54,63006,2.81,73366.5,-7.21,-8.21,-8.21,0,*57
1512554556.76,63007,2.81,73382.8,-7.21,-8.21,-8.21,0,*56
1512554557.98,63008,2.81,73400.0,-7.21,-8.21,-8.17,0,*5C
1512554559.17,63009,2.81,73352.5,-7.23,-8.21,-8.17,0,*5F
1512554560.37,63010,2.81,73316.0,-7.23,-8.21,-8.17,0,*57
1512554561.58,63011,2.81,73284.5,-7.21,-8.21,-8.21,0,*51
1512554562.8,63012,2.81,73318.0,-7.21,-8.29,-8.29,0,*52
1512554564.02,63013,2.81,73320.0,-7.21,-8.21,-8.21,0,*53
1512554565.24,63014,2.81,73336.5,-7.21,-8.21,-8.21,0,*54
1512554566.43,63015,2.81,73344.3,-7.23,-8.21,-8.21,0,*57
1512554567.63,63016,2.81,73326.8,-7.23,-8.21,-8.29,0,*5C
1512554568.84,63017,2.81,73310.3,-7.21,-8.29,-8.29,0,*57
1512554570.04,63018,2.81,73318.5,-7.23,-8.21,-8.29,0,*52
1512554571.23,63019,2.81,73326.3,-7.23,-8.21,-8.17,0,*5E
1512554572.45,63020,2.81,73330.0,-7.23,-8.29,-8.07,0,*5D
1512554573.68,63021,2.81,73328.0,-7.23,-8.17,-8.07,0,*51
1512554574.96,63022,2.81,73348.0,-7.21,-8.07,-8.07,0,*51
1512554576.24,63023,2.81,73384.0,-7.21,-8.07,-8.07,0,*50
1512554577.48,63024,2.81,73334.0,-7.23,-8.03,-8.03,0,*55
1512554578.72,63025,2.81,73316.5,-7.23,-8.03,-8.03,0,*54
1512554579.98,63026,2.81,73348.0,-7.21,-8.03,-8.03,0,*55
1512554581.26,63027,2.81,73376.8,-7.21,-8.03,-8.07,0,*50
1512554582.53,63028,2.81,73348.0,-7.21,-8.07,-8.07,0,*5B
1512554583.82,63029,2.81,73282.5,-7.21,-8.07,-8.07,0,*5A
1512554585.07,63030,2.81,73280.5,-7.21,-8.17,-8.07,0,*53
1512554586.31,63031,2.81,73312.0,-7.21,-8.07,-8.17,0,*52
1512554587.59,63032,2.81,73332.8,-7.21,-8.07,-8.07,0,*50
1512554588.84,63033,2.81,73330.3,-7.21,-8.07,-8.17,0,*50
1512554590.06,63034,2.81,73372.8,-7.21,-8.21,-8.17,0,*53
1512554591.27,63035,2.81,73354.5,-7.21,-8.17,-8.17,0,*57
1512554592.53,63036,2.81,73296.3,-7.21,-8.17,-8.07,0,*55
1512554593.76,63037,2.81,73322.0,-7.23,-8.17,-8.07,0,*56
1512554595.01,63038,2.81,73354.8,-7.23,-8.07,-8.07,0,*58
1512554596.24,63039,2.81,73364.5,-7.23,-8.17,-8.07,0,*58
1512554597.52,63040,2.81,73388.8,-7.21,-8.07,-8.07,0,*55
1512554598.77,63041,2.81,73346.0,-7.21,-8.07,-8.17,0,*55
1512554600.02,63042,2.81,73352.5,-7.21,-8.17,-8.07,0,*56
1512554601.27,63043,2.81,73328.3,-7.21,-8.07,-8.17,0,*57
1512554602.52,63044,2.81,73340.0,-7.21,-8.17,-8.07,0,*50
1512554603.8,63045,2.81,73382.0,-7.21,-8.07,-8.07,0,*50
1512554605.08,63046,2.81,73362.8,-7.21,-8.07,-8.07,0,*53
1512554606.36,63047,2.81,73354.3,-7.21,-8.07,-8.07,0,*52
1512554607.61,63048,2.81,73354.5,-7.23,-8.07,-8.07,0,*5F
1512554608.89,63049,2.81,73360.3,-7.21,-8.07,-8.07,0,*5C
1512554610.15,63050,2.81,73360.8,-7.23,-8.07,-8.07,0,*56
1512554611.43,63051,2.81,73344.3,-7.21,-8.07,-8.07,0,*55
1512554612.7,63052,2.81,73360.8,-7.21,-8.07,-8.03,0,*52
1512554613.97,63053,2.81,73352.3,-7.21,-8.07,-8.03,0,*53
1512554615.24,63054,2.81,73346.3,-7.17,-8.03,-7.99,0,*59
1512554616.51,63055,2.81,73346.0,-7.17,-8.03,-7.99,0,*58
1512554617.78,63056,2.81,73352.5,-7.21,-8.07,-8.03,0,*56
1512554619.05,63057,2.81,73364.3,-7.21,-8.07,-8.03,0,*57
1512554620.32,63058,2.81,73356.0,-7.21,-8.07,-8.03,0,*58
1512554621.58,63059,2.81,73344.5,-7.21,-8.07,-8.03,0,*59
1512554622.86,63060,2.81,73344.5,-7.21,-8.07,-8.07,0,*57
1512554624.13,63061,2.81,73354.0,-7.17,-8.03,-8.03,0,*53
1512554625.4,63062,2.81,73356.3,-7.17,-8.03,-8.03,0,*50
1512554626.66,63063,2.81,73356.0,-7.17,-8.03,-8.03,0,*51
1512554627.93,63064,2.81,73360.0,-7.17,-8.03,-7.99,0,*5A
1512554629.17,63065,2.81,73348.5,-7.15,-8.03,-8.03,0,*55
1512554630.44,63066,2.81,73352.5,-7.21,-8.03,-8.07,0,*55
1512554631.7,63067,2.81,73352.8,-7.17,-8.03,-8.03,0,*55
1512554632.97,63068,2.81,73360.0,-7.17,-8.03,-8.11,0,*59
1512554634.24,63069,2.81,73362.8,-7.17,-8.03,-8.03,0,*5B
1512554635.52,63070,2.81,73368.0,-7.21,-8.07,-8.07,0,*56
1512554636.76,63071,2.81,73372.8,-7.15,-8.03,-8.03,0,*50
1512554638.03,63072,2.81,73370.5,-7.21,-8.03,-8.07,0,*50
1512554639.3,63073,2.81,73372.0,-7.17,-7.99,-7.99,0,*50
1512554640.57,63074,2.81,73370.3,-7.17,-7.99,-8.03,0,*5B
1512554641.84,63075,2.81,73326.0,-7.17,-7.99,-8.03,0,*5A
1512554643.11,63076,2.81,73336.5,-7.17,-7.99,-8.03,0,*59
1512554644.38,63077,2.81,73346.8,-7.17,-7.99,-8.03,0,*58
1512554645.65,63078,2.81,73356.0,-7.17,-7.99,-8.03,0,*57
1512554646.91,63079,2.81,73342.5,-7.17,-7.99,-8.03,0,*56
1512554648.18,63080,2.81,73344.8,-7.17,-8.03,-8.03,0,*5C
1512554649.42,63081,2.81,73346.8,-7.15,-8.03,-8.11,0,*5C
1512554650.69,63082,2.81,73346.5,-7.17,-8.03,-8.03,0,*5E
1512554651.95,63083,2.81,73348.8,-7.17,-8.03,-8.03,0,*5F
1512554653.2,63084,2.81,73350.3,-7.15,-8.11,-8.03,0,*59
1512554654.47,63085,2.81,73354.8,-7.17,-8.11,-8.03,0,*5A
1512554655.74,63086,2.81,73350.3,-7.17,-8.11,-8.03,0,*59
1512554657.01,63087,2.81,73352.8,-7.17,-8.03,-8.03,0,*5B
1512554658.27,63088,2.81,73368.5,-7.17,-8.03,-8.03,0,*54
1512554659.54,63089,2.81,73346.5,-7.17,-8.03,-8.03,0,*55
1512554660.8,63090,2.81,73324.8,-7.17,-8.03,-8.03,0,*5D
1512554662.07,63091,2.81,73318.8,-7.17,-8.03,-8.03,0,*5C
1512554663.34,63092,2.81,73334.5,-7.17,-8.11,-8.11,0,*5F
1512554664.61,63093,2.81,73346.5,-7.17,-8.03,-8.03,0,*5E
1512554665.88,63094,2.81,73338.3,-7.17,-8.11,-8.03,0,*5A
1512554667.16,63095,2.81,73322.8,-7.17,-8.11,-8.11,0,*58
1512554668.43,63096,2.81,73336.3,-7.17,-8.11,-8.11,0,*5B
1512554669.68,63097,2.81,73346.5,-7.17,-8.11,-8.17,0,*5C
1512554670.96,63098,2.81,73332.5,-7.17,-8.11,-8.11,0,*55
1512554672.2,63099,2.81,73340.8,-7.17,-8.03,-8.17,0,*51
1512554673.45,63100,2.81,73324.0,-7.17,-8.11,-8.17,0,*53
1512554674.67,63101,2.81,73296.5,-7.17,-8.17,-8.17,0,*54
1512554675.9,63102,2.81,73336.0,-7.17,-8.17,-8.25,0,*56
1512554677.15,63103,2.81,73316.3,-7.17,-8.17,-8.11,0,*50
1512554678.39,63104,2.81,73306.3,-7.17,-8.11,-8.25,0,*56
1512554679.61,63105,2.81,73332.8,-7.21,-8.21,-8.17,0,*50
1512554680.83,63106,2.81,73230.5,-7.21,-8.21,-8.29,0,*5E
1512554682.05,63107,2.81,73312.3,-7.21,-8.21,-8.21,0,*57
1512554683.26,63108,2.81,73312.3,-7.21,-8.29,-8.17,0,*55
1512554684.48,63109,2.81,73326.3,-7.21,-8.21,-8.21,0,*59
1512554685.7,63110,2.81,73310.5,-7.21,-8.21,-8.21,0,*51
1512554686.92,63111,2.81,73282.0,-7.21,-8.29,-8.21,0,*58
1512554688.14,63112,2.81,73280.3,-7.21,-8.21,-8.21,0,*53
1512554689.35,63113,2.81,73246.3,-7.21,-8.21,-8.29,0,*5A
1512554690.57,63114,2.81,73322.0,-7.21,-8.21,-8.21,0,*55
1512554691.79,63115,2.81,73296.0,-7.21,-8.29,-8.21,0,*5C
1512554693.01,63116,2.81,73316.3,-7.21,-8.21,-8.21,0,*57
1512554694.23,63117,2.81,73308.5,-7.21,-8.21,-8.21,0,*56
1512554695.45,63118,2.81,73278.3,-7.21,-8.29,-8.29,0,*59
1512554696.67,63119,2.81,73348.3,-7.21,-8.17,-8.21,0,*5D
1512554697.89,63120,2.81,73328.3,-7.21,-8.21,-8.21,0,*52
1512554699.1,63121,2.81,73318.0,-7.21,-8.29,-8.29,0,*53
1512554700.32,63122,2.81,73318.3,-7.21,-8.29,-8.29,0,*50
1512554701.53,63123,2.81,73332.3,-7.21,-8.21,-8.33,0,*52
1512554702.75,63124,2.81,73348.5,-7.21,-8.29,-8.29,0,*56
1512554703.94,63125,2.81,73348.0,-7.23,-8.21,-8.29,0,*5D
1512554705.13,63126,2.81,73354.3,-7.23,-8.29,-8.29,0,*56
1512554706.34,63127,2.81,73320.5,-7.21,-8.33,-8.29,0,*5E
1512554707.53,63128,2.81,73334.8,-7.23,-8.21,-8.33,0,*5B
1512554708.73,63129,2.81,73332.0,-7.23,-8.21,-8.21,0,*59
1512554709.92,63130,2.81,73306.8,-7.23,-8.29,-8.21,0,*59
1512554711.14,63131,2.81,73350.5,-7.21,-8.29,-8.21,0,*5A
1512554712.34,63132,2.81,73364.5,-7.23,-8.21,-8.29,0,*5B
1512554713.53,63133,2.81,73368.5,-7.23,-8.29,-8.29,0,*52
1512554714.74,63134,2.81,73348.8,-7.21,-8.29,-8.29,0,*57
1512554715.96,63135,2.81,73344.0,-7.21,-8.21,-8.29,0,*5E
1512554717.18,63136,2.81,73346.0,-7.21,-8.29,-8.21,0,*5D
1512554718.39,63137,2.81,73320.8,-7.21,-8.21,-8.29,0,*5C
1512554719.61,63138,2.81,73334.8,-7.21,-8.29,-8.29,0,*5B
1512554720.8,63139,2.81,73348.8,-7.23,-8.33,-8.29,0,*53
1512554721.99,63140,2.81,73350.0,-7.23,-8.33,-8.41,0,*53
1512554723.2,63141,2.81,73342.0,-7.21,-8.33,-8.33,0,*55
1512554724.39,63142,2.81,73342.3,-7.23,-8.33,-8.29,0,*5F
1512554725.58,63143,2.81,73318.8,-7.23,-8.33,-8.41,0,*50
1512554726.76,63144,2.81,73266.8,-7.23,-8.33,-8.33,0,*52
1512554727.95,63145,2.81,73338.0,-7.23,-8.41,-8.33,0,*56
1512554729.14,63146,2.81,73356.8,-7.23,-8.29,-8.33,0,*5B
1512554730.33,63147,2.81,73344.3,-7.23,-8.29,-8.33,0,*5A
1512554731.55,63148,2.81,73346.5,-7.21,-8.41,-8.41,0,*5C
1512554732.76,63149,2.81,73356.3,-7.21,-8.33,-8.33,0,*5D
1512554733.95,63150,2.81,73358.5,-7.23,-8.29,-8.33,0,*5C
1512554735.14,63151,2.81,73336.5,-7.23,-8.29,-8.33,0,*5D
1512554736.33,63152,2.81,73264.0,-7.23,-8.41,-8.33,0,*50
1512554737.52,63153,2.81,73322.0,-7.23,-8.41,-8.33,0,*51
1512554738.71,63154,2.81,73318.3,-7.23,-8.33,-8.41,0,*56
1512554739.92,63155,2.81,73318.3,-7.21,-8.33,-8.33,0,*50
1512554741.11,63156,2.81,73246.3,-7.23,-8.33,-8.41,0,*54
1512554742.31,63157,2.81,73292.8,-7.25,-8.37,-8.37,0,*56
1512554743.5,63158,2.81,73270.0,-7.23,-8.33,-8.33,0,*5F
1512554744.69,63159,2.81,73298.8,-7.23,-8.33,-8.41,0,*5B
1512554745.89,63160,2.81,73268.3,-7.23,-8.41,-8.41,0,*54
1512554747.08,63161,2.81,73348.5,-7.25,-8.45,-8.25,0,*55
1512554748.29,63162,2.81,73292.8,-7.25,-8.37,-8.37,0,*50
1512554749.49,63163,2.81,73346.0,-7.25,-8.37,-8.37,0,*51
1512554750.69,63164,2.81,73308.0,-7.25,-8.37,-8.45,0,*53
1512554751.9,63165,2.81,73328.0,-7.25,-8.37,-8.37,0,*57
1512554753.09,63166,2.81,73356.3,-7.25,-8.33,-8.37,0,*50
1512554754.3,63167,2.81,73368.0,-7.25,-8.37,-8.37,0,*55
1512554755.52,63168,2.81,73362.0,-7.27,-8.37,-8.33,0,*5C
1512554756.72,63169,2.81,73366.8,-7.25,-8.37,-8.37,0,*5B
1512554757.92,63170,2.81,73350.5,-7.25,-8.37,-8.45,0,*56
1512554759.13,63171,2.81,73328.3,-7.25,-8.37,-8.37,0,*52
1512554760.33,63172,2.81,73304.3,-7.25,-8.37,-8.37,0,*51
1512554761.55,63173,2.81,73272.8,-7.27,-8.45,-8.45,0,*52
1512554762.78,63174,2.81,73268.5,-7.27,-8.37,-8.45,0,*50
1512554764.01,63175,2.81,73302.5,-7.27,-8.37,-8.37,0,*54
1512554765.24,63176,2.81,73324.8,-7.27,-8.45,-8.37,0,*52
1512554766.43,63177,2.81,73330.5,-7.25,-8.33,-8.37,0,*50
1512554767.64,63178,2.81,73304.0,-7.27,-8.33,-8.33,0,*59
1512554768.83,63179,2.81,73308.5,-7.25,-8.33,-8.33,0,*5A
1512554770.02,63180,2.81,73314.5,-7.25,-8.33,-8.33,0,*5C
1512554771.23,63181,2.81,73354.8,-7.27,-8.33,-8.33,0,*5F
1512554772.45,63182,2.81,73358.3,-7.27,-8.25,-8.25,0,*5C
1512554773.66,63183,2.81,73360.0,-7.27,-8.33,-8.33,0,*5D
1512554774.87,63184,2.81,73362.8,-7.27,-8.33,-8.25,0,*5D
1512554776.07,63185,2.81,73368.0,-7.25,-8.25,-8.25,0,*59
1512554777.26,63186,2.81,73380.5,-7.25,-8.33,-8.25,0,*5D
1512554778.47,63187,2.81,73374.3,-7.27,-8.33,-8.25,0,*5E
1512554779.69,63188,2.81,73378.5,-7.27,-8.25,-8.33,0,*51
1512554780.88,63189,2.81,73390.0,-7.25,-8.25,-8.33,0,*52
1512554782.08,63190,2.81,73388.8,-7.25,-8.25,-8.25,0,*5D
1512554783.3,63191,2.81,73374.5,-7.27,-8.25,-8.25,0,*5E
1512554784.49,63192,2.81,73362.0,-7.25,-8.33,-8.33,0,*5F
1512554785.7,63193,2.81,73338.5,-7.27,-8.33,-8.33,0,*5C
1512554786.93,63194,2.81,73334.5,-7.27,-8.37,-8.37,0,*5B
1512554788.12,63195,2.81,73346.8,-7.25,-8.33,-8.37,0,*5C
1512554789.35,63196,2.81,73358.3,-7.27,-8.33,-8.37,0,*5D
1512554790.55,63197,2.81,73368.0,-7.25,-8.37,-8.37,0,*5A
1512554791.75,63198,2.81,73376.3,-7.25,-8.37,-8.37,0,*55
1512554792.98,63199,2.81,73380.0,-7.27,-8.37,-8.45,0,*53
1512554794.21,63200,2.81,73386.0,-7.27,-8.37,-8.37,0,*55
1512554795.41,63201,2.81,73402.8,-7.25,-8.37,-8.37,0,*56
1512554796.6,63202,2.81,73420.0,-7.25,-8.37,-8.33,0,*51
1512554797.83,63203,2.81,73400.3,-7.27,-8.37,-8.45,0,*53
1512554799.02,63204,2.88,73414.8,-7.25,-8.37,-8.33,0,*57
1512554800.23,63205,2.81,73394.5,-7.27,-8.33,-8.33,0,*50
1512554801.45,63206,2.81,73360.5,-7.27,-8.37,-8.33,0,*57
1512554802.68,63207,2.81,73330.0,-7.27,-8.37,-8.37,0,*52
1512554803.91,63208,2.81,73358.8,-7.27,-8.37,-8.37,0,*5D
1512554805.12,63209,2.81,73394.0,-7.27,-8.33,-8.33,0,*5C
1512554806.33,63210,2.81,73372.8,-7.27,-8.33,-8.33,0,*54
1512554807.56,63211,2.81,73376.8,-7.27,-8.37,-8.37,0,*55
1512554808.79,63212,2.81,73372.0,-7.27,-8.37,-8.45,0,*53
1512554809.98,63213,2.88,73352.0,-7.29,-8.41,-8.41,0,*59
1512554811.17,63214,2.81,73286.5,-7.29,-8.41,-8.41,0,*5E
1512554812.39,63215,2.81,73350.8,-7.27,-8.45,-8.45,0,*51
1512554813.61,63216,2.88,73398.5,-7.29,-8.51,-8.41,0,*5D
1512554814.81,63217,2.81,73372.5,-7.29,-8.37,-8.37,0,*5D
1512554816.0,63218,2.81,73384.5,-7.29,-8.41,-8.41,0,*52
1512554817.23,63219,2.81,73348.8,-7.31,-8.45,-8.45,0,*5A
1512554818.42,63220,2.81,73356.3,-7.29,-8.41,-8.41,0,*59
1512554819.63,63221,2.81,73322.0,-7.29,-8.41,-8.51,0,*59
1512554820.88,63222,2.81,73324.0,-7.29,-8.51,-8.51,0,*5B
1512554822.09,63223,2.81,73340.5,-7.31,-8.45,-8.55,0,*52
1512554823.31,63224,2.81,73352.8,-7.29,-8.51,-8.41,0,*5C
1512554824.53,63225,2.81,73352.3,-7.29,-8.51,-8.41,0,*5D
1512554825.75,63226,2.81,73348.8,-7.31,-8.45,-8.45,0,*56
1512554826.97,63227,2.81,73348.8,-7.29,-8.41,-8.51,0,*5F
1512554828.16,63228,2.81,73340.3,-7.29,-8.41,-8.41,0,*51
1512554829.35,63229,2.81,73350.8,-7.29,-8.41,-8.41,0,*50
1512554830.55,63230,2.81,73360.0,-7.29,-8.41,-8.41,0,*58
1512554831.74,63231,2.81,73376.5,-7.29,-8.41,-8.37,0,*58
1512554832.96,63232,2.81,73368.8,-7.31,-8.45,-8.41,0,*57
1512554834.16,63233,2.81,73350.5,-7.29,-8.41,-8.41,0,*5B
1512554835.35,63234,2.81,73336.5,-7.29,-8.55,-8.45,0,*5D
1512554836.57,63235,2.81,73336.5,-7.31,-8.45,-8.55,0,*55
1512554837.79,63236,2.81,73336.5,-7.29,-8.51,-8.41,0,*5F
1512554839.0,63237,2.81,73350.3,-7.29,-8.41,-8.51,0,*5E
1512554840.23,63238,2.81,73366.3,-7.31,-8.45,-8.45,0,*59
1512554841.45,63239,2.81,73374.5,-7.31,-8.45,-8.45,0,*58
1512554842.68,63240,2.81,73384.5,-7.31,-8.45,-8.45,0,*56
1512554843.89,63241,2.81,73352.5,-7.29,-8.51,-8.41,0,*5F
1512554845.12,63242,2.81,73342.5,-7.31,-8.45,-8.45,0,*54
1512554846.31,63243,2.81,73384.8,-7.29,-8.41,-8.41,0,*5C
1512554847.54,63244,2.81,73388.5,-7.31,-8.55,-8.45,0,*53
1512554848.76,63245,2.81,73396.5,-7.31,-8.55,-8.45,0,*52
1512554849.98,63246,2.81,73408.0,-7.31,-8.45,-8.45,0,*50
1512554851.2,63247,2.81,73408.3,-7.31,-8.41,-8.55,0,*54
1512554852.42,63248,2.81,73422.3,-7.31,-8.45,-8.55,0,*5F
1512554853.63,63249,2.81,73422.0,-7.31,-8.45,-8.55,0,*5E
1512554854.85,63250,2.81,73418.0,-7.31,-8.45,-8.41,0,*53
1512554856.07,63251,2.81,73418.0,-7.31,-8.45,-8.41,0,*52
1512554857.3,63252,2.81,73416.8,-7.31,-8.45,-8.45,0,*55
1512554858.52,63253,2.81,73434.8,-7.31,-8.45,-8.41,0,*50
1512554859.72,63254,2.81,73442.3,-7.29,-8.41,-8.37,0,*5B
1512554860.93,63255,2.81,73440.3,-7.31,-8.41,-8.33,0,*57
1512554862.16,63256,2.81,73440.5,-7.31,-8.55,-8.41,0,*54
1512554863.38,63257,2.81,73424.3,-7.31,-8.55,-8.45,0,*51
1512554864.61,63258,2.81,73406.0,-7.31,-8.55,-8.45,0,*5E
1512554865.83,63259,2.81,73396.5,-7.31,-8.55,-8.45,0,*5F
1512554867.03,63260,2.81,73390.0,-7.33,-8.55,-8.55,0,*56
1512554868.22,63261,2.81,73380.8,-7.33,-8.59,-8.45,0,*5A
1512554869.42,63262,2.81,73374.5,-7.33,-8.55,-8.59,0,*58
1512554870.61,63263,2.81,73366.0,-7.33,-8.55,-8.55,0,*55
1512554871.81,63264,2.81,73358.3,-7.33,-8.55,-8.55,0,*52
1512554873.0,63265,2.81,73358.3,-7.33,-8.59,-8.59,0,*53
1512554874.19,63266,2.88,73360.3,-7.33,-8.67,-8.67,0,*50
1512554875.38,63267,2.81,73358.8,-7.33,-8.59,-8.55,0,*5D
1512554876.57,63268,2.81,73356.3,-7.33,-8.59,-8.59,0,*5E
1512554877.77,63269,2.81,73360.0,-7.33,-8.59,-8.59,0,*5F
1512554878.96,63270,2.81,73380.8,-7.33,-8.59,-8.59,0,*57
1512554880.15,63271,2.88,73422.5,-7.33,-8.67,-8.59,0,*5B
1512554881.35,63272,2.81,73406.0,-7.33,-8.67,-8.59,0,*58
1512554882.54,63273,2.81,73380.5,-7.33,-8.59,-8.59,0,*54
1512554883.73,63274,2.81,73356.8,-7.33,-8.67,-8.59,0,*5E
1512554884.92,63275,2.88,73354.5,-7.33,-8.67,-8.67,0,*52
1512554886.15,63276,2.81,73358.3,-7.35,-8.71,-8.71,0,*57
1512554887.37,63277,2.81,73296.5,-7.35,-8.71,-8.71,0,*56
1512554888.6,63278,2.81,73322.8,-7.35,-8.71,-8.71,0,*59
1512554889.83,63279,2.88,73318.5,-7.35,-8.63,-8.63,0,*58
1512554891.05,63280,2.81,73318.5,-7.35,-8.75,-8.75,0,*5E
1512554892.27,63281,2.81,73320.3,-7.35,-8.75,-8.71,0,*5B
1512554893.5,63282,2.81,73344.3,-7.35,-8.75,-8.85,0,*53
1512554894.72,63283,2.81,73352.5,-7.35,-8.71,-8.75,0,*59
1512554895.95,63284,2.81,73360.8,-7.35,-8.71,-8.71,0,*5A
1512554897.18,63285,2.81,73374.0,-7.35,-8.71,-8.71,0,*5B
1512554898.41,63286,2.81,73382.8,-7.35,-8.71,-8.71,0,*58
1512554899.61,63287,2.81,73388.5,-7.37,-8.71,-8.71,0,*5B
1512554900.81,63288,2.81,73396.3,-7.37,-8.71,-8.71,0,*54
1512554902.0,63289,2.88,73418.5,-7.37,-8.75,-8.71,0,*51
1512554903.2,63290,2.81,73416.0,-7.37,-8.63,-8.63,0,*5D
1512554904.42,63291,2.81,73414.3,-7.39,-8.71,-8.63,0,*51
1512554905.62,63292,2.81,73412.8,-7.37,-8.75,-8.71,0,*5B
1512554906.82,63293,2.81,73390.3,-7.37,-8.71,-8.71,0,*5E
1512554908.02,63294,2.81,73362.3,-7.37,-8.71,-8.71,0,*59
1512554909.21,63295,2.81,73340.0,-7.37,-8.75,-8.71,0,*5C
1512554910.43,63296,2.88,73332.8,-7.39,-8.75,-8.71,0,*51
1512554911.63,63297,2.81,73320.5,-7.37,-8.63,-8.63,0,*5A
1512554912.85,63298,2.81,73326.5,-7.39,-8.75,-8.71,0,*5F
1512554914.04,63299,2.81,73318.8,-7.37,-8.75,-8.75,0,*54
1512554915.28,63300,2.81,73336.5,-7.39,-8.71,-8.85,0,*50